Change the Weather History Date:

Saturday, November 3, 2012

  Actual Average Record
Temperature  
Mean Temperature 69 °F 58 °F  
Max Temperature 81 °F 70 °F 87 °F (1978)
Min Temperature 56 °F 46 °F 20 °F (1951)
Degree Days  
Heating Degree Days 0 8  
Month to date heating degree days 6 23  
Since 1 July heating degree days 173 156  
Cooling Degree Days 4 1  
Month to date cooling degree days 5 3  
Year to date cooling degree days 2276 2114  
Growing Degree Days 19 (Base 50)    
Moisture  
Dew Point 60 °F    
Average Humidity 76    
Maximum Humidity 100    
Minimum Humidity 51    
Precipitation  
Precipitation 0.18 in 0.16 in 1.69 in (1954)
Month to date precipitation 0.18 0.47  
Year to date precipitation 36.87 43.32  
Snow  
Snow 0.00 in - - ()
Month to date snowfall 0.0  
Since 1 July snowfall 0.0  
Since 1 September snowfall 0.0  
Snow Depth 0.00 in    
Sea Level Pressure  
Sea Level Pressure 30.04 in    
Wind  
Wind Speed 5 mph (SW)    
Max Wind Speed 18 mph    
Max Gust Speed 28 mph    
Visibility 9 miles    
Events      
T = Trace of Precipitation, MM = Missing Value Source: NWS Daily Summary

Daily Weather History Graph

Daily Weather History Graph

Search for Another Location

Airport or City:

Trip Planner

Search our weather history database for the weather conditions in past years. The results will help you decide how hot, cold, wet, or windy it might be!

Date:

Astronomy

Nov. 03, 2012 Rise Set
Actual Time 7:31 AM CDT 6:17 PM CDT
Civil Twilight 7:06 AM CDT 6:43 PM CDT
Nautical Twilight 6:36 AM CDT 7:12 PM CDT
Astronomical Twilight 6:07 AM CDT 7:41 PM CDT
Moon 10:03 PM CDT 11:31 AM CDT
Length of Visible Light 11h 36m
Length of Day
10h 45m
Waning Gibbous, 80% of the Moon is Illuminated
Nov 3
Waning Gibbous
Nov 6
Last Quarter
Nov 13
New
Nov 20
First Quarter
Nov 28
Full

Hourly Weather History & Observations

Time (CDT) Temp. Heat Index Dew Point Humidity Pressure Visibility Wind Dir Wind Speed Gust Speed Precip Events Conditions
12:53 AM 57.9 °F - 55.9 °F 93% 29.99 in 10.0 mi Calm Calm - 0.01 in   Clear
1:53 AM 57.0 °F - 55.0 °F 93% 30.00 in 10.0 mi South 3.5 mph - N/A   Clear
2:53 AM 61.0 °F - 57.9 °F 90% 30.00 in 10.0 mi SW 4.6 mph - N/A   Clear
3:53 AM 60.1 °F - 57.9 °F 93% 30.01 in 10.0 mi SSW 3.5 mph - N/A   Clear
4:53 AM 59.0 °F - 57.0 °F 93% 30.02 in 10.0 mi SSW 3.5 mph - N/A   Clear
5:53 AM 60.1 °F - 57.9 °F 93% 30.04 in 8.0 mi SSW 3.5 mph - N/A   Clear
6:53 AM 59.0 °F - 57.9 °F 96% 30.06 in 6.0 mi Calm Calm - N/A   Clear
7:47 AM 59.0 °F - 57.2 °F 94% 30.08 in 1.8 mi SSW 3.5 mph - N/A   Clear
7:53 AM 57.9 °F - 57.9 °F 100% 30.07 in 0.8 mi SSW 3.5 mph - N/A   Clear
8:02 AM 59.0 °F - 57.2 °F 94% 30.08 in 2.0 mi SSW 3.5 mph - N/A   Clear
8:10 AM 59.0 °F - 57.2 °F 94% 30.08 in 5.0 mi SSW 4.6 mph - N/A   Clear
8:53 AM 63.0 °F - 62.1 °F 97% 30.09 in 8.0 mi SSW 4.6 mph - N/A   Clear
9:53 AM 68.0 °F - 64.0 °F 87% 30.09 in 10.0 mi SSW 8.1 mph - N/A   Clear
10:53 AM 73.9 °F - 66.0 °F 76% 30.09 in 10.0 mi SW 12.7 mph 21.9 mph N/A   Partly Cloudy
11:53 AM 75.9 °F - 64.0 °F 67% 30.08 in 10.0 mi WSW 10.4 mph 16.1 mph N/A   Partly Cloudy
12:53 PM 80.1 °F 81.9 °F 64.9 °F 60% 30.06 in 10.0 mi West 8.1 mph - N/A   Mostly Cloudy
1:53 PM 79.0 °F - 64.0 °F 60% 30.04 in 10.0 mi WSW 9.2 mph - N/A   Partly Cloudy
2:53 PM 81.0 °F 81.7 °F 61.0 °F 50% 30.01 in 10.0 mi SSW 10.4 mph - N/A   Clear
3:53 PM 81.0 °F 81.6 °F 60.1 °F 49% 30.00 in 10.0 mi West 4.6 mph - N/A   Partly Cloudy
4:53 PM 80.1 °F 80.9 °F 60.1 °F 50% 29.99 in 10.0 mi SW 5.8 mph - N/A   Partly Cloudy
5:53 PM 75.9 °F - 62.1 °F 62% 29.99 in 10.0 mi South 3.5 mph - N/A   Clear
6:53 PM 68.0 °F - 63.0 °F 84% 30.01 in 10.0 mi South 4.6 mph - N/A   Clear
7:53 PM 68.0 °F - 63.0 °F 84% 30.02 in 10.0 mi SSW 3.5 mph - N/A   Clear
8:53 PM 66.0 °F - 63.0 °F 90% 30.03 in 10.0 mi Calm Calm - N/A   Clear
9:53 PM 66.9 °F - 62.1 °F 84% 30.02 in 10.0 mi SSW 4.6 mph - N/A   Clear
10:53 PM 68.0 °F - 63.0 °F 84% 30.03 in 10.0 mi Calm Calm - N/A   Clear
11:53 PM 68.0 °F - 57.9 °F 70% 30.07 in 10.0 mi North 6.9 mph 17.3 mph N/A   Overcast